• en Suisse
  • Liste des pays
  • À 7 jours
  • Température de l'eau
  • Carte satellitaire
  • Carte météo
  • Widgets météo
  • user-avatar
    Se connecter

    Météo par heure à Chichester

    Ce jour, 16 Octobre, Mardi

    Heure Température Précipitation Vent Pression Humidité
    00:00 +12°C° 0 mm 3 m/s 759 mmHg 95%
    01:00 +12°C° 0 mm 3 m/s 759 mmHg 95%
    02:00 +13°C° 0 mm 3 m/s 758 mmHg 95%
    03:00 +14°C° 0 mm 2 m/s 758 mmHg 95%
    04:00 +13°C° 0 mm 3 m/s 759 mmHg 95%
    05:00 +13°C° 0 mm 3 m/s 759 mmHg 94%
    06:00 +13°C° 0 mm 3 m/s 759 mmHg 94%
    07:00 +16°C° 0 mm 3 m/s 759 mmHg 90%
    08:00 +17°C° 0 mm 4 m/s 759 mmHg 86%
    09:00 +18°C° 0 mm 4 m/s 760 mmHg 82%
    10:00 +19°C° 0 mm 5 m/s 760 mmHg 79%
    11:00 +19°C° 0 mm 5 m/s 760 mmHg 76%
    12:00 +20°C° 0 mm 5 m/s 760 mmHg 72%
    13:00 +19°C° 0 mm 5 m/s 760 mmHg 75%
    14:00 +19°C° 0 mm 5 m/s 760 mmHg 78%
    15:00 +17°C° 0 mm 5 m/s 760 mmHg 80%
    16:00 +16°C° 0 mm 5 m/s 760 mmHg 83%
    17:00 +15°C° 0 mm 5 m/s 760 mmHg 86%
    18:00 +15°C° 0 mm 4 m/s 761 mmHg 89%
    19:00 +14°C° 0 mm 4 m/s 761 mmHg 90%
    20:00 +13°C° 0 mm 4 m/s 761 mmHg 91%
    21:00 +13°C° 0 mm 3 m/s 761 mmHg 92%
    22:00 +12°C° 0 mm 3 m/s 761 mmHg 92%
    23:00 +12°C° 0 mm 3 m/s 761 mmHg 92%

    Demain, 17 Octobre, Mercredi

    Heure Température Précipitation Vent Pression Humidité
    00:00 +12°C° 0 mm 3 m/s 761 mmHg 92%
    01:00 +12°C° 0 mm 3 m/s 761 mmHg 92%
    02:00 +12°C° 0 mm 3 m/s 761 mmHg 93%
    03:00 +12°C° 0 mm 3 m/s 761 mmHg 93%
    04:00 +12°C° 0 mm 3 m/s 761 mmHg 93%
    05:00 +13°C° 0 mm 2 m/s 761 mmHg 93%
    06:00 +13°C° 0 mm 2 m/s 761 mmHg 93%
    07:00 +14°C° 0.1 mm 2 m/s 762 mmHg 90%
    08:00 +14°C° 0.1 mm 2 m/s 762 mmHg 87%
    09:00 +15°C° 0.1 mm 2 m/s 762 mmHg 84%
    10:00 +16°C° 0.1 mm 2 m/s 762 mmHg 81%
    11:00 +16°C° 0.1 mm 2 m/s 762 mmHg 79%
    12:00 +17°C° 0.1 mm 2 m/s 762 mmHg 76%
    13:00 +18°C° 0 mm 1 m/s 762 mmHg 76%
    14:00 +16°C° 0 mm 1 m/s 762 mmHg 76%
    15:00 +16°C° 0 mm 1 m/s 762 mmHg 76%
    16:00 +16°C° 0 mm 1 m/s 762 mmHg 80%
    17:00 +15°C° 0 mm 1 m/s 763 mmHg 84%
    18:00 +14°C° 0 mm 1 m/s 763 mmHg 88%
    19:00 +14°C° 0 mm 2 m/s 763 mmHg 89%
    20:00 +14°C° 0 mm 2 m/s 764 mmHg 90%
    21:00 +13°C° 0 mm 3 m/s 764 mmHg 90%
    22:00 +13°C° 0 mm 3 m/s 764 mmHg 91%
    23:00 +12°C° 0 mm 4 m/s 764 mmHg 91%

    Après-demain, 18 Octobre, Jeudi

    Heure Température Précipitation Vent Pression Humidité
    00:00 +12°C° 0 mm 4 m/s 765 mmHg 91%
    01:00 +12°C° 0 mm 5 m/s 765 mmHg 92%
    02:00 +12°C° 0 mm 5 m/s 765 mmHg 93%
    03:00 +12°C° 0 mm 5 m/s 765 mmHg 95%
    04:00 +11°C° 0 mm 6 m/s 765 mmHg 93%
    05:00 +11°C° 0 mm 6 m/s 765 mmHg 92%
    06:00 +11°C° 0 mm 6 m/s 766 mmHg 90%
    07:00 +13°C° 0 mm 6 m/s 766 mmHg 87%
    08:00 +12°C° 0 mm 7 m/s 766 mmHg 84%
    09:00 +12°C° 0 mm 7 m/s 767 mmHg 81%
    10:00 +14°C° 0 mm 7 m/s 767 mmHg 78%
    11:00 +15°C° 0 mm 7 m/s 767 mmHg 74%
    12:00 +15°C° 0 mm 7 m/s 767 mmHg 71%
    13:00 +15°C° 0 mm 6 m/s 767 mmHg 71%
    14:00 +15°C° 0 mm 6 m/s 766 mmHg 71%
    15:00 +15°C° 0 mm 6 m/s 766 mmHg 71%
    16:00 +14°C° 0 mm 6 m/s 766 mmHg 74%
    17:00 +13°C° 0 mm 6 m/s 767 mmHg 77%
    18:00 +12°C° 0 mm 5 m/s 767 mmHg 80%
    19:00 +10°C° 0 mm 5 m/s 767 mmHg 82%
    20:00 +10°C° 0 mm 5 m/s 767 mmHg 84%
    21:00 +10°C° 0 mm 5 m/s 768 mmHg 86%
    22:00 +9°C° 0 mm 5 m/s 768 mmHg 87%
    23:00 +9°C° 0 mm 5 m/s 768 mmHg 89%

    19 Octobre, Vendredi

    Heure Température Précipitation Vent Pression Humidité
    00:00 +9°C° 0 mm 5 m/s 768 mmHg 90%
    01:00 +10°C° 0 mm 4 m/s 768 mmHg 91%
    02:00 +10°C° 0 mm 4 m/s 768 mmHg 92%
    03:00 +10°C° 0 mm 4 m/s 768 mmHg 94%
    04:00 +10°C° 0 mm 4 m/s 768 mmHg 93%
    05:00 +10°C° 0 mm 4 m/s 768 mmHg 93%
    06:00 +10°C° 0 mm 4 m/s 768 mmHg 93%
    07:00 +11°C° 0 mm 4 m/s 768 mmHg 90%
    08:00 +11°C° 0 mm 4 m/s 768 mmHg 87%
    09:00 +12°C° 0 mm 4 m/s 769 mmHg 84%
    10:00 +13°C° 0 mm 4 m/s 769 mmHg 79%
    11:00 +15°C° 0 mm 4 m/s 769 mmHg 75%
    12:00 +17°C° 0 mm 4 m/s 769 mmHg 70%
    13:00 +17°C° 0 mm 3 m/s 769 mmHg 69%
    14:00 +17°C° 0 mm 3 m/s 769 mmHg 68%
    15:00 +17°C° 0 mm 3 m/s 768 mmHg 67%
    16:00 +16°C° 0 mm 3 m/s 769 mmHg 72%
    17:00 +13°C° 0 mm 3 m/s 769 mmHg 77%
    18:00 +12°C° 0 mm 3 m/s 769 mmHg 83%
    19:00 +12°C° 0 mm 3 m/s 770 mmHg 84%
    20:00 +11°C° 0 mm 3 m/s 770 mmHg 86%
    21:00 +11°C° 0 mm 3 m/s 770 mmHg 88%
    22:00 +10°C° 0 mm 3 m/s 770 mmHg 88%
    23:00 +10°C° 0 mm 3 m/s 770 mmHg 89%

    20 Octobre, Samedi

    Heure Température Précipitation Vent Pression Humidité
    00:00 +10°C° 0 mm 3 m/s 770 mmHg 89%
    01:00 +10°C° 0 mm 3 m/s 770 mmHg 90%
    02:00 +9°C° 0 mm 2 m/s 770 mmHg 90%
    03:00 +9°C° 0 mm 2 m/s 770 mmHg 90%
    04:00 +9°C° 0 mm 2 m/s 771 mmHg 90%
    05:00 +9°C° 0 mm 2 m/s 771 mmHg 90%
    06:00 +9°C° 0 mm 2 m/s 771 mmHg 90%
    07:00 +10°C° 0 mm 2 m/s 771 mmHg 85%
    08:00 +12°C° 0 mm 2 m/s 772 mmHg 81%
    09:00 +13°C° 0 mm 2 m/s 772 mmHg 76%
    10:00 +15°C° 0 mm 2 m/s 772 mmHg 70%
    11:00 +16°C° 0 mm 1 m/s 772 mmHg 64%
    12:00 +18°C° 0 mm 1 m/s 772 mmHg 58%
    13:00 +19°C° 0 mm 1 m/s 772 mmHg 57%
    14:00 +19°C° 0 mm 1 m/s 771 mmHg 55%
    15:00 +19°C° 0 mm 1 m/s 771 mmHg 54%
    16:00 +18°C° 0 mm 1 m/s 771 mmHg 61%
    17:00 +15°C° 0 mm 1 m/s 771 mmHg 67%
    18:00 +13°C° 0 mm 1 m/s 771 mmHg 74%
    19:00 +13°C° 0 mm 1 m/s 772 mmHg 75%
    20:00 +13°C° 0 mm 1 m/s 772 mmHg 77%
    21:00 +12°C° 0 mm 1 m/s 772 mmHg 78%
    22:00 +12°C° 0 mm 1 m/s 772 mmHg 79%
    23:00 +12°C° 0 mm 1 m/s 772 mmHg 80%

    21 Octobre, Dimanche

    Heure Température Précipitation Vent Pression Humidité
    00:00 +12°C° 0 mm 1 m/s 772 mmHg 81%
    01:00 +12°C° 0 mm 1 m/s 771 mmHg 82%
    02:00 +11°C° 0 mm 1 m/s 771 mmHg 83%
    03:00 +11°C° 0 mm 1 m/s 771 mmHg 84%
    04:00 +11°C° 0 mm 1 m/s 771 mmHg 84%
    05:00 +11°C° 0 mm 1 m/s 771 mmHg 84%
    06:00 +10°C° 0 mm 0 m/s 771 mmHg 85%
    07:00 +12°C° 0 mm 1 m/s 771 mmHg 80%
    08:00 +14°C° 0 mm 1 m/s 771 mmHg 75%
    09:00 +15°C° 0 mm 1 m/s 771 mmHg 71%
    10:00 +16°C° 0 mm 1 m/s 771 mmHg 67%
    11:00 +18°C° 0 mm 1 m/s 770 mmHg 64%
    12:00 +20°C° 0 mm 1 m/s 770 mmHg 61%
    13:00 +20°C° 0 mm 1 m/s 770 mmHg 63%
    14:00 +19°C° 0 mm 2 m/s 770 mmHg 65%
    15:00 +19°C° 0 mm 2 m/s 769 mmHg 67%
    16:00 +18°C° 0 mm 2 m/s 769 mmHg 73%
    17:00 +17°C° 0 mm 2 m/s 769 mmHg 80%
    18:00 +16°C° 0 mm 2 m/s 769 mmHg 86%
    19:00 +16°C° 0 mm 2 m/s 769 mmHg 88%
    20:00 +15°C° 0 mm 2 m/s 770 mmHg 91%
    21:00 +15°C° 0 mm 2 m/s 770 mmHg 93%
    22:00 +13°C° 0 mm 3 m/s 770 mmHg 93%
    23:00 +13°C° 0 mm 3 m/s 770 mmHg 93%
    Voir plus